STARLINK-32180, 60374

Orbit data source: Space-Track

STARLINK-32180, 60374 is a payload satellite owned by SpaceX/Seattle (US) in LEO that was launched on Sun, 04 Aug 2024 UTC via an FALCON 9 launch vehicle from the Air Force Western Test Range (AFWTR). Payload-class satellites include a variety of spacecraft equipped with specific instruments for various scientific and technological missions. These include communications satellites like Starlink; space stations such as the ISS; scientific satellites like the Hubble; Earth observation satellites from companies like Planet Labs, Umbra, and HawkEye 360; GPS; miniature CubeSats for education and research; and military/defense satellites.

Loading next visibility...
Identifier
60374, 2024-138V
Orbit
LEO
Country
Flag of USUS
Related business
Manufacturer
SpaceX/Seattle
Mission
Operational Commercial Communications
Bus & Motor
STARLINK V2M, Unknown motor
Mass
730 kg wet, ~700 kg dry
Launch date (UTC)
2024-08-04 (2 years ago)
Launch vehicle
FALCON 9
Launch site
Air Force Western Test Range (AFWTR)
Object type
Payload
Rocket body
Debris
Shape & HBR
Box + 2 Pan, 17.7 m
Radar Cross Section
33.884 m², Large (>1 m²)

Expand to show TLE details & history
Last TLE update: 17 hours ago

TLE from 17 hours ago
0 STARLINK-32180
1 60374U 24138V   26257.95870633  .00000085  00000-0  14523-4 0  9993
2 60374  53.1593 149.1837 0001510  93.0299 267.0875 15.31697751119629
Epoch: 2026-09-14T23:00Z
TLE epoch observation values (Epoch: 2026-09-14T23:00:32.226Z)
Latitude
-0.00006°
Longitude
170.11785°
Altitude
471.7 km
Speed
7.631 km/s
True Right ascension
09h 56m 44s
True Declination
0° 00' 00"
Sunlit
Object was in daylight at epoch
Visualization orbit readout
Latitude
Unknown
Longitude
Unknown
Altitude
Unknown
Speed
Unknown
Apparent Right ascension
Unknown
Apparent Declination
Unknown
Sunlit
N/A
Visualization observer readout
Local Sidereal Time
08:41:52
Azimuth
Unknown
Elevation
Unknown
Doppler factor
Unknown
Orbital elements
Apogee altitude
472.038 km
Perigee altitude
469.969 km
Semi-major axis
6,849.14 km
Eccentricity
0.00015
Inclination
53.1593°
RAAN
149.1837°
Arg. of periapsis
93.0299°
True anomaly
267.07022°
Mean anomaly
267.0875°
Eccentric anomaly
267.07886°
Mean motion
3.82903 °/min
Orbital period
94.02 mins
BSTAR
0.000014523
Loading maneuver chart data...
Computing Atmospheric mass density...
Loading historical data...
Loading historical data...
Loading historical data...
Loading historical data...
Loading historical data...
Loading historical data...
Loading historical data...

Documentation

Showing up to 5 results
|